Location: ???????
(38.4753°N, 23.2391°E)
Time: 18:33:52
(UTC+00:00)

Daily predictions for brighter satellites

Satellite Brightness Start Highest point End
(mag) Time Altitude Azimuth Time Altitude Azimuth Time Altitude Azimuth
Landsat 7 3.8 17:04:07 10° SSE 17:08:48 85° ENE 17:13:31 10° N
ATLAS CENTAUR R/B 3.3 17:05:42 10° NNW 17:10:37 48° NE 17:18:08 10° ESE
Cosmos 2360 Rocket 2.5 17:07:06 10° SSW 17:12:44 77° WNW 17:18:24 10° NNE
Cosmos 1898 Rocket 3.8 17:12:34 10° N 17:17:44 50° ENE 17:22:49 10° SE
Cosmos 1459 Rocket 4.4 17:12:57 10° SSW 17:18:57 67° W 17:24:59 10° N
Okean O Rocket 3.7 17:18:17 10° ENE 17:19:21 11° ENE 17:20:26 10° NE
Cosmos 2322 Rocket 3.3 17:16:06 10° SW 17:21:37 51° WNW 17:27:11 10° NNE
USA 306 3.4 17:19:41 10° S 17:21:53 20° SE 17:24:24 10° ENE
Cosmos 1151 Rocket 3.5 17:19:06 10° N 17:23:07 39° ENE 17:27:05 10° SSE
Resurs 01 Rocket 3.0 17:20:08 10° ESE 17:23:28 21° ENE 17:26:49 10° NNE
ACS3 Solar Sail 3.3 17:20:20 10° ESE 17:24:21 18° ENE 17:28:23 10° NNE
Cosmos 1340 2.7 17:21:30 10° SSE 17:24:33 39° E 17:27:38 10° NNE
Meteor PRIRODA 3.8 17:23:41 10° SE 17:26:49 40° ENE 17:29:57 10° N
USA 186 3.4 17:25:33 12° ESE 17:27:22 17° ENE 17:29:33 10° NNE
Cosmos 2333 Rocket 2.9 17:23:42 10° SW 17:29:22 60° WNW 17:35:05 10° NNE
ATLAS 3B R/B 3.0 17:24:43 10° NNW 17:32:40 84° ENE 17:40:18 10° SSE
Cosmos 2219 Rocket 2.2 17:27:59 10° SSW 17:33:40 82° ESE 17:39:21 10° NNE
Helios 1A 2.8 17:31:59 10° NNE 17:36:03 70° ESE 17:40:04 10° S
Meteor 1-5 Rocket 4.2 17:31:14 10° S 17:36:45 83° E 17:42:31 10° N
BlueWalker 3 4.4 17:37:12 10° N 17:38:26 11° NNE 17:39:41 10° NE
SL-08 R/B 3.5 17:35:53 10° N 17:40:49 81° WNW 17:45:43 10° SSW
SAR-Lupe-2 3.7 17:37:19 10° S 17:40:52 77° WSW 17:44:27 10° NNW
USA 229 DEB 4.3 17:34:15 10° NNW 17:41:38 53° NE 17:48:31 14° SE
USA 229 4.3 17:34:25 10° NNW 17:41:47 53° NE 17:48:36 14° SE
CZ-4B R/B 3.3 17:42:23 10° SSE 17:47:07 88° WSW 17:51:53 10° NNW
Timation 2 Rocket 4.0 17:42:19 10° NNW 17:48:38 69° ENE 17:55:11 10° SSE
Cosmos 1766 Rocket 3.9 17:48:08 10° SSE 17:52:13 42° E 17:56:19 10° NNE
SJ-6B 2.7 17:48:37 10° S 17:52:18 81° W 17:55:56 10° NNW
Cosmos 1626 2.5 17:49:23 10° NNW 17:52:18 48° W 17:55:11 10° S
Cosmos 2322 3.6 17:48:42 10° S 17:54:16 65° ESE 17:59:52 10° NNE
Cosmos 1844 Rocket 4.1 17:50:08 10° NW 17:55:23 40° WSW 18:00:36 10° S
GEOS 3 Rocket 3.7 17:55:00 12° SSE 17:59:55 81° WSW 18:05:08 10° NW
Cosmos 1066 Rocket 4.4 17:56:24 10° N 18:02:12 58° ENE 18:07:17 13° SSE
Cosmos 1400 Rocket 2.7 18:06:17 10° N 18:10:03 55° E 18:11:19 36° SE
CZ-4 R/B 1.4 18:06:30 10° S 18:10:15 72° WSW 18:14:04 10° NNW
COSMOS 2428 2.6 18:07:35 10° SSW 18:13:15 76° ESE 18:18:58 10° NNE
CSL-04 Debris 4.1 18:10:18 18° SSE 18:14:23 66° ENE 18:19:50 10° N
Cosmos 1818 4.1 18:09:37 10° SW 18:15:00 62° WNW 18:20:27 10° NNE
Cosmos 1726 3.0 18:12:37 10° SSW 18:15:15 37° W 18:17:55 10° N
Cosmos 1707 3.9 18:12:30 10° NNE 18:14:39 24° NE 18:14:39 24° NE
Cosmos 1937 Rocket 3.9 18:13:27 10° NNW 18:18:39 63° WSW 18:23:44 11° S
Cosmos 1536 3.9 18:20:00 27° NE 18:20:00 27° NE 18:22:15 10° NNE
Cosmos 1513 Rocket 4.4 18:14:31 10° S 18:20:29 64° E 18:26:28 10° NNE
BREEZE M DEB (TANK) 4.5 18:15:05 10° SW 18:20:33 86° SE 18:42:52 10° ENE
Meteor 1-14 Rocket 4.1 18:15:10 10° S 18:20:41 71° E 18:26:12 10° NNE
Lacrosse 4 Rocket 1.7 18:19:41 10° NNW 18:23:55 51° ENE 18:24:34 46° E
Cosmos 1464 Rocket 4.1 18:18:42 14° SSE 18:23:57 51° E 18:30:04 10° NNE
PAYLOAD B 4.5 18:18:30 10° S 18:24:03 71° WSW 18:29:40 10° NNW
Cosmos 1943 Rocket 3.7 18:20:43 10° N 18:24:31 19° NE 18:24:57 18° ENE
USA 59 Rocket 1.3 18:21:28 10° N 18:25:04 28° NE 18:25:31 28° ENE
KORONAS-FOTON 3.9 18:22:07 10° N 18:25:27 50° ENE 18:25:27 50° ENE
Meteor 1-11 Rocket 4.1 18:27:19 38° ESE 18:28:15 40° E 18:33:27 10° NNE
Cosmos 1356 Rocket 4.1 18:24:36 10° N 18:28:04 37° ENE 18:28:04 37° ENE
Terra 3.7 18:30:28 15° NE 18:30:28 15° NE 18:32:10 10° NNE
Cosmos 1328 Rocket 3.4 18:28:13 10° N 18:32:32 87° W 18:34:05 39° S
Meteor 1-4 Rocket 4.2 18:30:36 10° N 18:31:20 16° N 18:31:20 16° N
Cosmos 1674 2.5 18:31:42 10° NNW 18:35:01 67° W 18:35:10 66° WSW
CZ-4B R/B 3.3 18:33:16 18° S 18:37:22 73° WSW 18:42:50 10° NNW
CZ-4B R/B 4.4 18:34:40 11° SSW 18:37:47 31° W 18:41:14 10° NNW
ERS-1 Rocket 4.3 18:39:39 24° NE 18:39:39 24° NE 18:42:52 10° NNE
OAO 2 Rocket 3.8 18:34:18 10° W 18:38:56 43° SSW 18:39:33 41° S
Cosmos 2278 Rocket 2.8 18:35:30 10° N 18:40:44 37° ENE 18:41:07 37° ENE
NOSS 2-1 (C) 4.3 18:37:40 10° NNW 18:41:26 39° NE 18:41:26 39° NE
Cosmos 2034 Rocket 4.2 18:41:54 45° ESE 18:42:43 47° E 18:48:36 10° NNE
CARTOSAT-1 4.4 18:40:59 22° SSW 18:43:27 47° W 18:47:33 10° NNW
SPOT 5 3.3 18:45:10 44° NE 18:45:10 44° NE 18:49:07 10° N
Cosmos 1072 Rocket 4.4 18:40:51 10° S 18:47:15 86° E 18:53:42 10° N
NOSS 0 Rocket 3.9 18:45:27 10° SSW 18:51:41 89° WNW 18:57:58 10° NNE
Okean 3 Rocket 3.7 18:51:02 48° SSW 18:52:14 77° W 18:56:43 10° N
USA 306 3.9 18:51:20 10° WSW 18:54:09 34° NW 18:54:09 34° NW
Okean O Rocket 1.7 18:54:28 63° SSW 18:54:58 70° WSW 18:59:25 10° NNW
USA 215 3.1 18:51:14 10° NE 18:57:46 70° SE 19:04:17 10° SW
USA 186 4.3 18:58:07 17° WSW 18:58:57 19° W 19:01:17 10° NW
Resurs 01 Rocket 3.2 18:57:00 18° SSW 18:59:40 32° W 19:03:40 10° NNW
ATLAS CENTAUR R/B 4.3 18:55:00 10° WNW 19:00:36 39° SW 19:05:09 23° S
Aureole 3 Rocket 4.2 19:01:28 41° SSE 19:04:15 67° E 19:10:18 10° NNE
Cosmos 2237 Rocket 2.0 19:04:47 78° SE 19:04:59 80° ESE 19:10:38 10° NNE
MOS 1 Rocket 4.0 19:06:49 46° NNE 19:06:49 46° NNE 19:10:43 10° N
ACS3 Solar Sail 2.0 19:05:10 40° S 19:07:40 74° W 19:14:05 10° NNW
Okean-O 3.2 19:12:12 52° NNW 19:12:12 52° NNW 19:15:34 10° NNW
MetOp-B 4.1 19:17:45 76° N 19:17:45 76° N 19:22:42 10° NNW
BlueWalker 3 4.1 19:13:50 10° NW 19:15:32 23° NNW 19:15:32 23° NNW
NOSS 2-1 (E) 4.3 19:13:19 10° NNW 19:16:32 55° NNW 19:16:32 55° NNW
Cosmos 44 Rocket 4.2 19:13:22 10° NW 19:17:37 39° WSW 19:17:37 39° WSW
Cosmos 1515 Rocket 4.5 19:14:16 10° NNW 19:17:32 46° NW 19:17:32 46° NW
USA 267 4.3 19:29:00 29° NE 19:30:08 31° NNE 19:35:45 10° NNW
Cosmos 1980 4.3 19:29:56 20° SW 19:33:43 55° WNW 19:39:19 10° NNE
Cosmos 2369 Rocket 4.4 19:38:14 10° NNE 19:39:53 14° NNE 19:39:53 14° NNE
Lacrosse 4 Rocket 4.4 19:59:32 10° WNW 20:00:26 12° W 20:00:26 12° W
Terra 4.0 20:09:10 23° NNW 20:09:10 23° NNW 20:11:02 10° NNW
Cosmos 1943 Rocket 3.5 20:03:15 10° NNW 20:06:28 35° NW 20:06:28 35° NW
USA 59 Rocket 2.7 20:10:28 10° NW 20:11:54 19° WNW 20:11:54 19° WNW
Cosmos 2278 Rocket 4.1 20:19:50 10° NW 20:22:58 25° WNW 20:22:58 25° WNW
USA 215 4.4 20:34:34 10° NNE 20:40:27 37° NNW 20:46:20 10° W
